Jamaica, NY

1:50 AM EDT on September 01, 2016 (GMT -0400)
Kennedy International

Weather History for KJFK - April, 2014

Change the Weather History Date:

Thursday, April 10, 2014

  Actual Average Record
Temperature  
Mean Temperature 46 °F 50 °F  
Max Temperature 53 °F 57 °F 72 °F (1991)
Min Temperature 38 °F 42 °F 28 °F (1997)
Degree Days  
Heating Degree Days 19 16  
Month to date heating degree days 169 172  
Since 1 July heating degree days 4726 4408  
Cooling Degree Days 0 0  
Month to date cooling degree days 0 0  
Year to date cooling degree days 0 0  
Moisture  
Dew Point 28 °F    
Average Humidity 46    
Maximum Humidity 71    
Minimum Humidity 21    
Precipitation  
Precipitation 0.00 in 0.14 in 2.33 in (1983)
Month to date precipitation 0.81 1.35  
Year to date precipitation 12.67 10.88  
Snow  
Snow 0.00 in 0.00 in 0.90 in (1996)
Month to date snowfall 0.0 0.4  
Since 1 July snowfall 45.5 23.4  
Snow Depth 0.00 in    
Sea Level Pressure  
Sea Level Pressure 30.14 in    
Wind  
Wind Speed 16 mph (South)    
Max Wind Speed 29 mph    
Max Gust Speed 35 mph    
Visibility 10 miles    
Events      
T = Trace of Precipitation, MM = Missing Value Source: NWS Daily Summary

Daily Weather History Graph

Daily Weather History Graph

Search for Another Location

Airport or City:

Trip Planner

Search our weather history database for the weather conditions in past years. The results will help you decide how hot, cold, wet, or windy it might be!

Date:

Astronomy

Apr. 10, 2014 Rise Set
Actual Time 6:24 AM EDT 7:29 PM EDT
Civil Twilight 5:56 AM EDT 7:57 PM EDT
Nautical Twilight 5:22 AM EDT 8:30 PM EDT
Astronomical Twilight 4:47 AM EDT 9:05 PM EDT
Moon 3:09 PM EDT (4/10) 3:47 AM EDT (4/10)
Length of Visible Light 14h 01m
Length of Day
13h 04m
Waxing Gibbous, 79% of the Moon is Illuminated
Apr 10
Waxing Gibbous
Apr 15
Full
Apr 22
Last Quarter
Apr 29
New
May 6
First Quarter

Hourly Weather History & Observations

Time (EDT) Temp. Windchill Dew Point Humidity Pressure Visibility Wind Dir Wind Speed Gust Speed Precip Events Conditions
12:51 AM 46.9 °F - 9.0 °F 21% 30.06 in 10.0 mi NNW 17.3 mph - N/A   Clear
1:51 AM 45.0 °F 38.5 °F 12.0 °F 26% 30.07 in 10.0 mi North 13.8 mph - N/A   Clear
2:51 AM 43.0 °F 38.8 °F 12.9 °F 30% 30.09 in 10.0 mi NNE 6.9 mph - N/A   Clear
3:51 AM 37.9 °F 35.5 °F 18.0 °F 45% 30.11 in 10.0 mi SSE 3.5 mph - N/A   Clear
4:51 AM 39.0 °F 35.7 °F 24.1 °F 55% 30.12 in 10.0 mi SSE 4.6 mph - N/A   Clear
5:51 AM 39.0 °F 34.8 °F 27.0 °F 62% 30.15 in 10.0 mi SSW 5.8 mph - N/A   Clear
6:51 AM 37.9 °F 33.5 °F 27.0 °F 65% 30.19 in 10.0 mi South 5.8 mph - N/A   Clear
7:51 AM 46.0 °F 41.9 °F 26.1 °F 46% 30.21 in 10.0 mi South 8.1 mph - N/A   Clear
8:51 AM 48.0 °F - 21.9 °F 36% 30.22 in 10.0 mi South 11.5 mph - N/A   Clear
9:51 AM 50.0 °F - 21.9 °F 33% 30.25 in 10.0 mi SSW 18.4 mph - N/A   Clear
10:51 AM 50.0 °F - 27.0 °F 41% 30.25 in 10.0 mi South 17.3 mph - N/A   Partly Cloudy
11:51 AM 52.0 °F - 26.1 °F 37% 30.24 in 10.0 mi South 19.6 mph - N/A   Partly Cloudy
12:51 PM 52.0 °F - 28.9 °F 41% 30.20 in 10.0 mi South 20.7 mph - N/A   Partly Cloudy
1:51 PM 53.1 °F - 26.1 °F 35% 30.19 in 10.0 mi South 21.9 mph - N/A   Partly Cloudy
2:51 PM 53.1 °F - 30.0 °F 41% 30.17 in 10.0 mi South 23.0 mph 29.9 mph N/A   Partly Cloudy
3:51 PM 52.0 °F - 35.1 °F 53% 30.14 in 10.0 mi South 24.2 mph 31.1 mph N/A   Scattered Clouds
4:51 PM 52.0 °F - 34.0 °F 50% 30.11 in 10.0 mi South 27.6 mph 33.4 mph N/A   Partly Cloudy
5:51 PM 51.1 °F - 37.0 °F 59% 30.10 in 10.0 mi South 24.2 mph 32.2 mph N/A   Scattered Clouds
6:51 PM 50.0 °F - 39.0 °F 66% 30.09 in 10.0 mi South 25.3 mph 33.4 mph N/A   Scattered Clouds
7:51 PM 48.9 °F - 39.0 °F 69% 30.09 in 10.0 mi South 23.0 mph 31.1 mph N/A   Mostly Cloudy
8:51 PM 48.9 °F - 39.0 °F 69% 30.09 in 10.0 mi South 19.6 mph - N/A   Mostly Cloudy
9:51 PM 48.9 °F - 39.0 °F 69% 30.08 in 10.0 mi South 19.6 mph - N/A   Scattered Clouds
10:51 PM 48.9 °F - 39.0 °F 69% 30.07 in 10.0 mi South 15.0 mph 23.0 mph N/A   Scattered Clouds
11:51 PM 50.0 °F - 37.9 °F 63% 30.06 in 10.0 mi South 17.3 mph - N/A   Overcast